Time,TemperatureF,DewpointF,PressureIn,WindDirection,WindDirectionDegrees,WindSpeedMPH,WindSpeedGustMPH,Humidity,HourlyPrecipIn,Conditions,Clouds,dailyrainin,SoftwareType,DateUTC
2013-03-19 00:04:00,45.6,29.0,25.06,WNW,285,19.0,-999.0,52,-99.99,,,-99.99,dwt +perl,2013-03-19 07:04:00,
2013-03-19 00:09:00,45.6,29.5,25.06,West,266,14.0,-999.0,53,-99.99,,,-99.99,dwt +perl,2013-03-19 07:09:00,
2013-03-19 00:14:00,45.7,30.5,25.05,West,278,16.0,-999.0,55,-99.99,,,-99.99,dwt +perl,2013-03-19 07:14:00,
2013-03-19 00:24:00,46.4,31.1,25.05,WNW,286,13.0,-999.0,55,-99.99,,,-99.99,dwt +perl,2013-03-19 07:24:00,
2013-03-19 00:29:00,46.7,31.8,25.05,West,272,13.0,-999.0,56,-99.99,,,-99.99,dwt +perl,2013-03-19 07:29:00,
2013-03-19 00:34:00,46.3,31.5,25.05,WNW,282,11.0,-999.0,56,-99.99,,,-99.99,dwt +perl,2013-03-19 07:34:00,
2013-03-19 00:39:00,45.8,31.9,25.05,WNW,285,15.0,-999.0,58,-99.99,,,-99.99,dwt +perl,2013-03-19 07:39:00,
2013-03-19 00:44:00,45.6,32.5,25.05,West,260,13.0,-999.0,60,-99.99,,,-99.99,dwt +perl,2013-03-19 07:44:00,
2013-03-19 00:49:00,45.6,32.5,25.05,West,280,13.0,-999.0,60,-99.99,,,-99.99,dwt +perl,2013-03-19 07:49:00,
2013-03-19 00:54:00,45.6,32.1,25.05,West,265,15.0,-999.0,59,-99.99,,,-99.99,dwt +perl,2013-03-19 07:54:00,
2013-03-19 00:59:00,45.5,32.4,25.04,WNW,288,12.0,-999.0,60,-99.99,,,-99.99,dwt +perl,2013-03-19 07:59:00,
2013-03-19 01:04:00,45.4,32.3,25.05,West,279,12.0,-999.0,60,-99.99,,,-99.99,dwt +perl,2013-03-19 08:04:00,
2013-03-19 01:09:00,45.4,32.3,25.05,West,268,9.0,-999.0,60,-99.99,,,-99.99,dwt +perl,2013-03-19 08:09:00,
2013-03-19 01:14:00,45.5,32.0,25.05,WNW,285,15.0,-999.0,59,-99.99,,,-99.99,dwt +perl,2013-03-19 08:14:00,
2013-03-19 01:19:00,45.7,32.2,25.05,WNW,293,12.0,-999.0,59,-99.99,,,-99.99,dwt +perl,2013-03-19 08:19:00,
2013-03-19 01:24:00,45.9,32.0,25.05,WSW,250,11.0,-999.0,58,-99.99,,,-99.99,dwt +perl,2013-03-19 08:24:00,
2013-03-19 01:29:00,46.0,31.6,25.05,WNW,289,13.0,-999.0,57,-99.99,,,-99.99,dwt +perl,2013-03-19 08:29:00,
2013-03-19 01:34:00,45.9,32.0,25.05,WNW,283,12.0,-999.0,58,-99.99,,,-99.99,dwt +perl,2013-03-19 08:34:00,
2013-03-19 01:39:00,45.8,31.4,25.05,WNW,285,10.0,-999.0,57,-99.99,,,-99.99,dwt +perl,2013-03-19 08:39:00,
2013-03-19 01:44:00,46.5,31.2,25.05,WNW,290,10.0,-999.0,55,-99.99,,,-99.99,dwt +perl,2013-03-19 08:44:00,
2013-03-19 01:49:00,47.3,31.0,25.05,WNW,303,12.0,-999.0,53,-99.99,,,-99.99,dwt +perl,2013-03-19 08:49:00,
2013-03-19 01:59:00,47.9,31.1,25.05,WNW,286,9.0,-999.0,52,-99.99,,,-99.99,dwt +perl,2013-03-19 08:59:00,
2013-03-19 02:04:00,48.8,31.0,25.05,NW,304,10.0,-999.0,50,-99.99,,,-99.99,dwt +perl,2013-03-19 09:04:00,
2013-03-19 02:09:00,49.2,30.4,25.05,WNW,294,3.0,-999.0,48,-99.99,,,-99.99,dwt +perl,2013-03-19 09:09:00,
2013-03-19 02:14:00,48.6,30.8,25.05,North,359,5.0,-999.0,50,-99.99,,,-99.99,dwt +perl,2013-03-19 09:14:00,
2013-03-19 02:19:00,47.5,30.8,25.05,North,11,4.0,-999.0,52,-99.99,,,-99.99,dwt +perl,2013-03-19 09:19:00,
2013-03-19 02:24:00,47.3,30.6,25.05,NNE,23,8.0,-999.0,52,-99.99,,,-99.99,dwt +perl,2013-03-19 09:24:00,
2013-03-19 02:29:00,47.6,30.4,25.05,NNE,31,7.0,-999.0,51,-99.99,,,-99.99,dwt +perl,2013-03-19 09:29:00,
2013-03-19 02:34:00,47.7,30.5,25.05,North,4,7.0,-999.0,51,-99.99,,,-99.99,dwt +perl,2013-03-19 09:34:00,
2013-03-19 02:39:00,47.8,30.1,25.05,NNE,31,6.0,-999.0,50,-99.99,,,-99.99,dwt +perl,2013-03-19 09:39:00,
2013-03-19 02:44:00,47.8,30.1,25.05,NNW,334,7.0,-999.0,50,-99.99,,,-99.99,dwt +perl,2013-03-19 09:44:00,
2013-03-19 02:54:00,47.3,30.1,25.05,NNE,21,4.0,-999.0,51,-99.99,,,-99.99,dwt +perl,2013-03-19 09:54:00,
2013-03-19 02:59:00,47.2,30.0,25.05,NNE,23,7.0,-999.0,51,-99.99,,,-99.99,dwt +perl,2013-03-19 09:59:00,
2013-03-19 03:04:00,47.2,30.0,25.05,NNE,25,10.0,-999.0,51,-99.99,,,-99.99,dwt +perl,2013-03-19 10:04:00,
2013-03-19 03:09:00,47.2,30.0,25.05,NNE,23,10.0,-999.0,51,-99.99,,,-99.99,dwt +perl,2013-03-19 10:09:00,
2013-03-19 03:14:00,47.0,29.8,25.05,NNE,19,10.0,-999.0,51,-99.99,,,-99.99,dwt +perl,2013-03-19 10:14:00,
2013-03-19 03:19:00,47.3,30.1,25.05,NNE,27,9.0,-999.0,51,-99.99,,,-99.99,dwt +perl,2013-03-19 10:19:00,
2013-03-19 03:24:00,47.4,29.7,25.04,North,4,9.0,-999.0,50,-99.99,,,-99.99,dwt +perl,2013-03-19 10:24:00,
2013-03-19 03:29:00,47.5,29.8,25.04,NE,43,9.0,-999.0,50,-99.99,,,-99.99,dwt +perl,2013-03-19 10:29:00,
2013-03-19 03:34:00,47.5,29.8,25.05,NNE,26,10.0,-999.0,50,-99.99,,,-99.99,dwt +perl,2013-03-19 10:34:00,
2013-03-19 03:39:00,47.5,29.3,25.05,NNE,16,12.0,-999.0,49,-99.99,,,-99.99,dwt +perl,2013-03-19 10:39:00,
2013-03-19 03:44:00,47.4,29.7,25.05,NE,39,12.0,-999.0,50,-99.99,,,-99.99,dwt +perl,2013-03-19 10:44:00,
2013-03-19 03:49:00,47.1,29.4,25.04,NNE,14,11.0,-999.0,50,-99.99,,,-99.99,dwt +perl,2013-03-19 10:49:00,
2013-03-19 03:54:00,47.4,29.7,25.04,NNE,22,12.0,-999.0,50,-99.99,,,-99.99,dwt +perl,2013-03-19 10:54:00,
2013-03-19 03:59:00,47.4,29.7,25.04,NNE,23,13.0,-999.0,50,-99.99,,,-99.99,dwt +perl,2013-03-19 10:59:00,
2013-03-19 04:04:00,47.3,29.6,25.04,North,4,12.0,-999.0,50,-99.99,,,-99.99,dwt +perl,2013-03-19 11:04:00,
2013-03-19 04:14:00,47.7,30.0,25.04,NNE,18,12.0,-999.0,50,-99.99,,,-99.99,dwt +perl,2013-03-19 11:14:00,
2013-03-19 04:19:00,47.8,30.1,25.04,NNE,20,10.0,-999.0,50,-99.99,,,-99.99,dwt +perl,2013-03-19 11:19:00,
2013-03-19 04:24:00,47.9,31.1,25.04,NNE,33,6.0,-999.0,52,-99.99,,,-99.99,dwt +perl,2013-03-19 11:24:00,
2013-03-19 04:29:00,47.8,31.5,25.03,NNE,24,7.0,-999.0,53,-99.99,,,-99.99,dwt +perl,2013-03-19 11:29:00,
2013-03-19 04:34:00,47.7,31.9,25.03,NNE,25,7.0,-999.0,54,-99.99,,,-99.99,dwt +perl,2013-03-19 11:34:00,
2013-03-19 04:39:00,47.6,32.2,25.03,NNE,27,7.0,-999.0,55,-99.99,,,-99.99,dwt +perl,2013-03-19 11:39:00,
2013-03-19 04:44:00,47.6,32.2,25.03,NE,37,7.0,-999.0,55,-99.99,,,-99.99,dwt +perl,2013-03-19 11:44:00,
2013-03-19 04:49:00,47.6,32.7,25.03,NNE,19,7.0,-999.0,56,-99.99,,,-99.99,dwt +perl,2013-03-19 11:49:00,
2013-03-19 04:54:00,47.8,32.9,25.03,NNE,25,7.0,-999.0,56,-99.99,,,-99.99,dwt +perl,2013-03-19 11:54:00,
2013-03-19 04:59:00,47.8,32.9,25.03,NNE,29,5.0,-999.0,56,-99.99,,,-99.99,dwt +perl,2013-03-19 11:59:00,
2013-03-19 05:04:00,47.7,32.8,25.03,NNE,32,6.0,-999.0,56,-99.99,,,-99.99,dwt +perl,2013-03-19 12:04:00,
2013-03-19 05:09:00,47.8,32.9,25.04,NNE,25,7.0,-999.0,56,-99.99,,,-99.99,dwt +perl,2013-03-19 12:09:00,
2013-03-19 05:14:00,47.9,33.0,25.04,NNE,16,5.0,-999.0,56,-99.99,,,-99.99,dwt +perl,2013-03-19 12:14:00,
2013-03-19 05:19:00,47.9,33.4,25.04,NNE,25,8.0,-999.0,57,-99.99,,,-99.99,dwt +perl,2013-03-19 12:19:00,
2013-03-19 05:24:00,47.9,33.4,25.04,NNE,22,8.0,-999.0,57,-99.99,,,-99.99,dwt +perl,2013-03-19 12:24:00,
2013-03-19 05:29:00,48.0,33.9,25.04,NNE,29,7.0,-999.0,58,-99.99,,,-99.99,dwt +perl,2013-03-19 12:29:00,
2013-03-19 05:34:00,48.0,33.9,25.04,NNE,23,7.0,-999.0,58,-99.99,,,-99.99,dwt +perl,2013-03-19 12:34:00,
2013-03-19 05:39:00,48.0,33.9,25.04,NNE,26,6.0,-999.0,58,-99.99,,,-99.99,dwt +perl,2013-03-19 12:39:00,
2013-03-19 05:44:00,47.9,33.8,25.04,NNE,28,5.0,-999.0,58,-99.99,,,-99.99,dwt +perl,2013-03-19 12:44:00,
2013-03-19 05:49:00,47.9,33.8,25.04,NNE,25,8.0,-999.0,58,-99.99,,,-99.99,dwt +perl,2013-03-19 12:49:00,
2013-03-19 05:54:00,48.0,33.9,25.05,NNE,29,6.0,-999.0,58,-99.99,,,-99.99,dwt +perl,2013-03-19 12:54:00,
2013-03-19 05:59:00,48.1,34.0,25.05,NE,41,7.0,-999.0,58,-99.99,,,-99.99,dwt +perl,2013-03-19 12:59:00,
2013-03-19 06:04:00,48.2,34.1,25.05,NNE,25,4.0,-999.0,58,-99.99,,,-99.99,dwt +perl,2013-03-19 13:04:00,
2013-03-19 06:09:00,48.3,34.2,25.05,NNE,26,5.0,-999.0,58,-99.99,,,-99.99,dwt +perl,2013-03-19 13:09:00,
2013-03-19 06:14:00,48.3,34.2,25.05,NNE,33,5.0,-999.0,58,-99.99,,,-99.99,dwt +perl,2013-03-19 13:14:00,
2013-03-19 06:19:00,48.5,34.0,25.05,NNE,29,5.0,-999.0,57,-99.99,,,-99.99,dwt +perl,2013-03-19 13:19:00,
2013-03-19 06:24:00,48.6,34.1,25.05,NE,35,6.0,-999.0,57,-99.99,,,-99.99,dwt +perl,2013-03-19 13:24:00,
2013-03-19 06:29:00,48.4,34.3,25.05,NE,34,5.0,-999.0,58,-99.99,,,-99.99,dwt +perl,2013-03-19 13:29:00,
2013-03-19 06:34:00,48.4,33.9,25.06,NNE,29,3.0,-999.0,57,-99.99,,,-99.99,dwt +perl,2013-03-19 13:34:00,
2013-03-19 06:39:00,48.8,33.8,25.06,NNE,33,5.0,-999.0,56,-99.99,,,-99.99,dwt +perl,2013-03-19 13:39:00,
2013-03-19 06:44:00,48.9,33.5,25.06,NNE,33,3.0,-999.0,55,-99.99,,,-99.99,dwt +perl,2013-03-19 13:44:00,
2013-03-19 06:49:00,49.2,33.3,25.06,NNE,31,5.0,-999.0,54,-99.99,,,-99.99,dwt +perl,2013-03-19 13:49:00,
2013-03-19 06:54:00,49.6,33.2,25.06,NNE,29,2.0,-999.0,53,-99.99,,,-99.99,dwt +perl,2013-03-19 13:54:00,
2013-03-19 06:59:00,49.5,33.1,25.06,NNE,28,4.0,-999.0,53,-99.99,,,-99.99,dwt +perl,2013-03-19 13:59:00,
2013-03-19 07:04:00,49.4,33.0,25.06,NNE,29,4.0,-999.0,53,-99.99,,,-99.99,dwt +perl,2013-03-19 14:04:00,
2013-03-19 07:09:00,49.5,33.5,25.06,NNE,28,4.0,-999.0,54,-99.99,,,-99.99,dwt +perl,2013-03-19 14:09:00,
2013-03-19 07:14:00,49.6,33.2,25.06,NNE,28,4.0,-999.0,53,-99.99,,,-99.99,dwt +perl,2013-03-19 14:14:00,
2013-03-19 07:19:00,49.7,32.8,25.06,NNE,31,2.0,-999.0,52,-99.99,,,-99.99,dwt +perl,2013-03-19 14:19:00,
2013-03-19 07:24:00,49.7,33.3,25.07,NNE,31,2.0,-999.0,53,-99.99,,,-99.99,dwt +perl,2013-03-19 14:24:00,
2013-03-19 07:29:00,49.6,33.2,25.07,NNW,347,3.0,-999.0,53,-99.99,,,-99.99,dwt +perl,2013-03-19 14:29:00,
2013-03-19 07:34:00,49.4,33.0,25.07,North,10,4.0,-999.0,53,-99.99,,,-99.99,dwt +perl,2013-03-19 14:34:00,
2013-03-19 07:39:00,49.4,33.0,25.07,NNE,14,2.0,-999.0,53,-99.99,,,-99.99,dwt +perl,2013-03-19 14:39:00,
2013-03-19 07:44:00,49.5,33.1,25.07,NNE,20,4.0,-999.0,53,-99.99,,,-99.99,dwt +perl,2013-03-19 14:44:00,
2013-03-19 07:54:00,49.4,33.0,25.07,North,354,3.0,-999.0,53,-99.99,,,-99.99,dwt +perl,2013-03-19 14:54:00,
2013-03-19 08:04:00,49.5,32.6,25.07,NNE,32,4.0,-999.0,52,-99.99,,,-99.99,dwt +perl,2013-03-19 15:04:00,
2013-03-19 08:14:00,49.7,32.8,25.08,NNE,31,3.0,-999.0,52,-99.99,,,-99.99,dwt +perl,2013-03-19 15:14:00,
2013-03-19 08:24:00,49.8,32.9,25.08,NNE,30,7.0,-999.0,52,-99.99,,,-99.99,dwt +perl,2013-03-19 15:24:00,
2013-03-19 08:29:00,49.8,32.9,25.08,NNE,28,7.0,-999.0,52,-99.99,,,-99.99,dwt +perl,2013-03-19 15:29:00,
2013-03-19 08:34:00,49.8,32.9,25.07,NNE,27,5.0,-999.0,52,-99.99,,,-99.99,dwt +perl,2013-03-19 15:34:00,
2013-03-19 08:44:00,49.9,33.0,25.08,NNE,31,4.0,-999.0,52,-99.99,,,-99.99,dwt +perl,2013-03-19 15:44:00,
2013-03-19 08:49:00,49.9,33.5,25.08,NNE,31,1.0,-999.0,53,-99.99,,,-99.99,dwt +perl,2013-03-19 15:49:00,
2013-03-19 08:54:00,50.3,33.8,25.08,NNE,31,3.0,-999.0,53,-99.99,,,-99.99,dwt +perl,2013-03-19 15:54:00,
2013-03-19 08:59:00,50.8,33.8,25.08,NNE,32,3.0,-999.0,52,-99.99,,,-99.99,dwt +perl,2013-03-19 15:59:00,
2013-03-19 09:04:00,51.2,33.7,25.08,NNE,33,2.0,-999.0,51,-99.99,,,-99.99,dwt +perl,2013-03-19 16:04:00,
2013-03-19 09:09:00,51.6,33.1,25.09,NNE,24,5.0,-999.0,49,-99.99,,,-99.99,dwt +perl,2013-03-19 16:09:00,
2013-03-19 09:14:00,51.8,34.2,25.08,NE,37,2.0,-999.0,51,-99.99,,,-99.99,dwt +perl,2013-03-19 16:14:00,
2013-03-19 09:19:00,52.4,34.8,25.08,NE,47,2.0,-999.0,51,-99.99,,,-99.99,dwt +perl,2013-03-19 16:19:00,
2013-03-19 09:24:00,53.1,35.5,25.08,NE,45,0.0,-999.0,51,-99.99,,,-99.99,dwt +perl,2013-03-19 16:24:00,
2013-03-19 09:29:00,53.6,34.4,25.08,NE,50,0.0,-999.0,48,-99.99,,,-99.99,dwt +perl,2013-03-19 16:29:00,
2013-03-19 09:34:00,53.8,34.0,25.08,NE,52,4.0,-999.0,47,-99.99,,,-99.99,dwt +perl,2013-03-19 16:34:00,
2013-03-19 09:44:00,54.2,34.4,25.09,NE,37,0.0,-999.0,47,-99.99,,,-99.99,dwt +perl,2013-03-19 16:44:00,
2013-03-19 09:49:00,54.8,35.5,25.09,NE,37,0.0,-999.0,48,-99.99,,,-99.99,dwt +perl,2013-03-19 16:49:00,
2013-03-19 09:54:00,55.1,35.8,25.09,NNE,32,0.0,-999.0,48,-99.99,,,-99.99,dwt +perl,2013-03-19 16:54:00,
2013-03-19 09:59:00,55.1,36.3,25.09,NNE,32,0.0,-999.0,49,-99.99,,,-99.99,dwt +perl,2013-03-19 16:59:00,
2013-03-19 10:04:00,55.6,36.2,25.09,NNE,32,0.0,-999.0,48,-99.99,,,-99.99,dwt +perl,2013-03-19 17:04:00,
2013-03-19 10:09:00,56.1,36.7,25.09,NNE,32,0.0,-999.0,48,-99.99,,,-99.99,dwt +perl,2013-03-19 17:09:00,
2013-03-19 10:14:00,56.5,36.5,25.09,NNE,32,0.0,-999.0,47,-99.99,,,-99.99,dwt +perl,2013-03-19 17:14:00,
2013-03-19 10:24:00,57.0,37.0,25.09,NE,40,1.0,-999.0,47,-99.99,,,-99.99,dwt +perl,2013-03-19 17:24:00,
2013-03-19 10:29:00,56.7,36.7,25.09,South,182,5.0,-999.0,47,-99.99,,,-99.99,dwt +perl,2013-03-19 17:29:00,
2013-03-19 10:34:00,55.2,35.8,25.09,SSW,193,5.0,-999.0,48,-99.99,,,-99.99,dwt +perl,2013-03-19 17:34:00,
2013-03-19 10:44:00,55.2,36.9,25.09,SSW,193,2.0,-999.0,50,-99.99,,,-99.99,dwt +perl,2013-03-19 17:44:00,
2013-03-19 10:49:00,56.1,37.7,25.09,SSW,193,0.0,-999.0,50,-99.99,,,-99.99,dwt +perl,2013-03-19 17:49:00,
2013-03-19 10:54:00,57.0,37.0,25.09,SSW,193,0.0,-999.0,47,-99.99,,,-99.99,dwt +perl,2013-03-19 17:54:00,
2013-03-19 10:59:00,57.2,37.2,25.09,East,83,0.0,-999.0,47,-99.99,,,-99.99,dwt +perl,2013-03-19 17:59:00,
2013-03-19 11:04:00,57.5,36.9,25.09,ENE,62,1.0,-999.0,46,-99.99,,,-99.99,dwt +perl,2013-03-19 18:04:00,
2013-03-19 11:14:00,57.9,36.7,25.09,ENE,61,0.0,-999.0,45,-99.99,,,-99.99,dwt +perl,2013-03-19 18:14:00,
2013-03-19 11:24:00,58.0,37.3,25.09,ENE,62,0.0,-999.0,46,-99.99,,,-99.99,dwt +perl,2013-03-19 18:24:00,
2013-03-19 11:29:00,58.0,36.8,25.09,South,190,2.0,-999.0,45,-99.99,,,-99.99,dwt +perl,2013-03-19 18:29:00,
2013-03-19 11:34:00,57.8,37.2,25.09,South,190,0.0,-999.0,46,-99.99,,,-99.99,dwt +perl,2013-03-19 18:34:00,
2013-03-19 11:39:00,58.3,38.2,25.09,ENE,72,2.0,-999.0,47,-99.99,,,-99.99,dwt +perl,2013-03-19 18:39:00,
2013-03-19 11:44:00,58.6,37.3,25.09,South,187,7.0,-999.0,45,-99.99,,,-99.99,dwt +perl,2013-03-19 18:44:00,
2013-03-19 11:49:00,58.3,37.0,25.09,East,89,0.0,-999.0,45,-99.99,,,-99.99,dwt +perl,2013-03-19 18:49:00,
2013-03-19 11:59:00,59.1,38.3,25.09,NE,47,1.0,-999.0,46,-99.99,,,-99.99,dwt +perl,2013-03-19 18:59:00,
2013-03-19 12:04:00,59.8,37.8,25.09,ENE,70,0.0,-999.0,44,-99.99,,,-99.99,dwt +perl,2013-03-19 19:04:00,
2013-03-19 12:09:00,59.4,38.0,25.09,ESE,102,1.0,-999.0,45,-99.99,,,-99.99,dwt +perl,2013-03-19 19:09:00,
2013-03-19 12:14:00,59.8,37.8,25.09,ESE,102,3.0,-999.0,44,-99.99,,,-99.99,dwt +perl,2013-03-19 19:14:00,
2013-03-19 12:19:00,59.9,37.9,25.09,ENE,68,1.0,-999.0,44,-99.99,,,-99.99,dwt +perl,2013-03-19 19:19:00,
2013-03-19 12:24:00,60.0,38.6,25.09,East,90,0.0,-999.0,45,-99.99,,,-99.99,dwt +perl,2013-03-19 19:24:00,
2013-03-19 12:29:00,60.5,38.5,25.09,East,86,0.0,-999.0,44,-99.99,,,-99.99,dwt +perl,2013-03-19 19:29:00,
2013-03-19 12:34:00,60.7,38.7,25.08,East,84,0.0,-999.0,44,-99.99,,,-99.99,dwt +perl,2013-03-19 19:34:00,
2013-03-19 12:39:00,60.6,38.6,25.09,ENE,60,2.0,-999.0,44,-99.99,,,-99.99,dwt +perl,2013-03-19 19:39:00,
2013-03-19 12:44:00,60.4,37.8,25.09,ENE,60,1.0,-999.0,43,-99.99,,,-99.99,dwt +perl,2013-03-19 19:44:00,
2013-03-19 12:49:00,60.1,37.5,25.09,East,83,5.0,-999.0,43,-99.99,,,-99.99,dwt +perl,2013-03-19 19:49:00,
2013-03-19 12:54:00,59.4,38.0,25.08,ENE,70,3.0,-999.0,45,-99.99,,,-99.99,dwt +perl,2013-03-19 19:54:00,
2013-03-19 13:04:00,59.3,38.0,25.08,NE,39,5.0,-999.0,45,-99.99,,,-99.99,dwt +perl,2013-03-19 20:04:00,
2013-03-19 13:14:00,59.9,39.1,25.08,South,191,0.0,-999.0,46,-99.99,,,-99.99,dwt +perl,2013-03-19 20:14:00,
2013-03-19 13:19:00,60.0,38.0,25.08,NNE,21,1.0,-999.0,44,-99.99,,,-99.99,dwt +perl,2013-03-19 20:19:00,
2013-03-19 13:24:00,60.0,37.4,25.08,NNW,339,3.0,-999.0,43,-99.99,,,-99.99,dwt +perl,2013-03-19 20:24:00,
2013-03-19 13:34:00,59.3,38.0,25.08,SW,226,1.0,-999.0,45,-99.99,,,-99.99,dwt +perl,2013-03-19 20:34:00,
2013-03-19 13:39:00,59.7,38.9,25.08,SSE,149,1.0,-999.0,46,-99.99,,,-99.99,dwt +perl,2013-03-19 20:39:00,
2013-03-19 13:44:00,60.7,38.7,25.08,ESE,123,0.0,-999.0,44,-99.99,,,-99.99,dwt +perl,2013-03-19 20:44:00,
2013-03-19 13:49:00,61.4,38.1,25.08,ESE,114,2.0,-999.0,42,-99.99,,,-99.99,dwt +perl,2013-03-19 20:49:00,
2013-03-19 13:59:00,61.3,38.6,25.08,East,96,0.0,-999.0,43,-99.99,,,-99.99,dwt +perl,2013-03-19 20:59:00,
2013-03-19 14:04:00,62.1,38.7,25.07,East,92,2.0,-999.0,42,-99.99,,,-99.99,dwt +perl,2013-03-19 21:04:00,
2013-03-19 14:09:00,62.4,38.4,25.08,East,83,2.0,-999.0,41,-99.99,,,-99.99,dwt +perl,2013-03-19 21:09:00,
2013-03-19 14:14:00,62.1,38.1,25.08,East,82,1.0,-999.0,41,-99.99,,,-99.99,dwt +perl,2013-03-19 21:14:00,
2013-03-19 14:19:00,62.2,38.2,25.07,East,79,2.0,-999.0,41,-99.99,,,-99.99,dwt +perl,2013-03-19 21:19:00,
2013-03-19 14:24:00,59.1,37.2,25.07,WSW,242,5.0,-999.0,44,-99.99,,,-99.99,dwt +perl,2013-03-19 21:24:00,
2013-03-19 14:34:00,57.0,38.0,25.07,WNW,288,1.0,-999.0,49,-99.99,,,-99.99,dwt +perl,2013-03-19 21:34:00,
2013-03-19 14:44:00,56.9,38.5,25.07,West,277,5.0,-999.0,50,-99.99,,,-99.99,dwt +perl,2013-03-19 21:44:00,
2013-03-19 14:54:00,57.1,37.6,25.07,West,269,6.0,-999.0,48,-99.99,,,-99.99,dwt +perl,2013-03-19 21:54:00,
2013-03-19 14:59:00,57.9,37.2,25.07,SSW,203,6.0,-999.0,46,-99.99,,,-99.99,dwt +perl,2013-03-19 21:59:00,
2013-03-19 15:04:00,57.6,37.0,25.07,West,263,8.0,-999.0,46,-99.99,,,-99.99,dwt +perl,2013-03-19 22:04:00,
2013-03-19 15:09:00,56.4,35.9,25.07,WSW,243,10.0,-999.0,46,-99.99,,,-99.99,dwt +perl,2013-03-19 22:09:00,
2013-03-19 15:14:00,56.6,36.6,25.06,SW,235,4.0,-999.0,47,-99.99,,,-99.99,dwt +perl,2013-03-19 22:14:00,
2013-03-19 15:19:00,57.3,36.7,25.06,SW,224,7.0,-999.0,46,-99.99,,,-99.99,dwt +perl,2013-03-19 22:19:00,
2013-03-19 15:24:00,56.6,34.9,25.06,West,260,5.0,-999.0,44,-99.99,,,-99.99,dwt +perl,2013-03-19 22:24:00,
2013-03-19 15:29:00,56.1,35.6,25.06,SW,235,12.0,-999.0,46,-99.99,,,-99.99,dwt +perl,2013-03-19 22:29:00,
2013-03-19 15:34:00,55.8,35.3,25.06,SW,223,9.0,-999.0,46,-99.99,,,-99.99,dwt +perl,2013-03-19 22:34:00,
2013-03-19 15:39:00,55.5,36.1,25.07,WSW,243,5.0,-999.0,48,-99.99,,,-99.99,dwt +perl,2013-03-19 22:39:00,
2013-03-19 15:44:00,56.5,36.0,25.06,SSW,196,5.0,-999.0,46,-99.99,,,-99.99,dwt +perl,2013-03-19 22:44:00,
2013-03-19 15:54:00,55.8,35.9,25.07,SSW,212,15.0,-999.0,47,-99.99,,,-99.99,dwt +perl,2013-03-19 22:54:00,
2013-03-19 15:59:00,54.9,35.0,25.07,WSW,254,14.0,-999.0,47,-99.99,,,-99.99,dwt +perl,2013-03-19 22:59:00,
2013-03-19 16:04:00,54.3,35.0,25.07,SSW,210,9.0,-999.0,48,-99.99,,,-99.99,dwt +perl,2013-03-19 23:04:00,
2013-03-19 16:14:00,53.6,33.9,25.07,SSW,205,16.0,-999.0,47,-99.99,,,-99.99,dwt +perl,2013-03-19 23:14:00,
2013-03-19 16:19:00,52.7,33.6,25.06,WSW,245,14.0,-999.0,48,-99.99,,,-99.99,dwt +perl,2013-03-19 23:19:00,
2013-03-19 16:29:00,51.6,32.5,25.07,SW,214,20.0,-999.0,48,-99.99,,,-99.99,dwt +perl,2013-03-19 23:29:00,
2013-03-19 16:34:00,51.4,32.4,25.07,SSW,199,15.0,-999.0,48,-99.99,,,-99.99,dwt +perl,2013-03-19 23:34:00,
2013-03-19 16:39:00,51.1,32.6,25.07,SW,215,13.0,-999.0,49,-99.99,,,-99.99,dwt +perl,2013-03-19 23:39:00,
2013-03-19 16:44:00,50.7,32.7,25.07,SW,226,15.0,-999.0,50,-99.99,,,-99.99,dwt +perl,2013-03-19 23:44:00,
2013-03-19 16:54:00,50.5,32.1,25.07,SW,233,12.0,-999.0,49,-99.99,,,-99.99,dwt +perl,2013-03-19 23:54:00,
2013-03-19 17:04:00,50.3,32.9,25.07,SW,229,16.0,-999.0,51,-99.99,,,-99.99,dwt +perl,2013-03-20 00:04:00,
2013-03-19 17:09:00,50.1,32.2,25.06,SW,233,17.0,-999.0,50,-99.99,,,-99.99,dwt +perl,2013-03-20 00:09:00,
2013-03-19 17:14:00,50.1,32.7,25.06,SW,217,12.0,-999.0,51,-99.99,,,-99.99,dwt +perl,2013-03-20 00:14:00,
2013-03-19 17:19:00,50.2,33.3,25.06,SSW,199,15.0,-999.0,52,-99.99,,,-99.99,dwt +perl,2013-03-20 00:19:00,
2013-03-19 17:24:00,50.2,33.3,25.07,SW,235,16.0,-999.0,52,-99.99,,,-99.99,dwt +perl,2013-03-20 00:24:00,
2013-03-19 17:29:00,49.9,33.5,25.07,WSW,239,14.0,-999.0,53,-99.99,,,-99.99,dwt +perl,2013-03-20 00:29:00,
2013-03-19 17:34:00,49.7,33.3,25.07,SW,235,13.0,-999.0,53,-99.99,,,-99.99,dwt +perl,2013-03-20 00:34:00,
2013-03-19 17:44:00,49.4,32.5,25.07,WSW,241,15.0,-999.0,52,-99.99,,,-99.99,dwt +perl,2013-03-20 00:44:00,
2013-03-19 17:49:00,49.0,32.6,25.07,SW,225,17.0,-999.0,53,-99.99,,,-99.99,dwt +perl,2013-03-20 00:49:00,
2013-03-19 17:54:00,48.6,32.7,25.07,SW,223,14.0,-999.0,54,-99.99,,,-99.99,dwt +perl,2013-03-20 00:54:00,
2013-03-19 17:59:00,48.2,32.3,25.06,SW,235,19.0,-999.0,54,-99.99,,,-99.99,dwt +perl,2013-03-20 00:59:00,
2013-03-19 18:04:00,47.9,32.1,25.07,SW,231,22.0,-999.0,54,-99.99,,,-99.99,dwt +perl,2013-03-20 01:04:00,
2013-03-19 18:09:00,47.6,33.1,25.06,SSW,213,17.0,-999.0,57,-99.99,,,-99.99,dwt +perl,2013-03-20 01:09:00,
2013-03-19 18:14:00,47.0,33.8,25.06,SW,228,19.0,-999.0,60,-99.99,,,-99.99,dwt +perl,2013-03-20 01:14:00,
2013-03-19 18:19:00,46.0,34.1,25.06,SW,233,21.0,-999.0,63,-99.99,,,-99.99,dwt +perl,2013-03-20 01:19:00,
2013-03-19 18:24:00,45.4,33.9,25.06,SW,224,15.0,-999.0,64,-99.99,,,-99.99,dwt +perl,2013-03-20 01:24:00,
2013-03-19 18:29:00,44.8,34.1,25.06,WSW,242,14.0,-999.0,66,-99.99,,,-99.99,dwt +perl,2013-03-20 01:29:00,
2013-03-19 18:34:00,44.4,34.1,25.06,West,265,14.0,-999.0,67,-99.99,,,-99.99,dwt +perl,2013-03-20 01:34:00,
2013-03-19 18:39:00,44.3,34.4,25.06,WSW,243,21.0,-999.0,68,-99.99,,,-99.99,dwt +perl,2013-03-20 01:39:00,
2013-03-19 18:44:00,44.1,34.6,25.06,WSW,256,16.0,-999.0,69,-99.99,,,-99.99,dwt +perl,2013-03-20 01:44:00,
2013-03-19 18:49:00,43.7,34.2,25.06,WSW,250,17.0,-999.0,69,-99.99,,,-99.99,dwt +perl,2013-03-20 01:49:00,
2013-03-19 18:54:00,43.3,34.2,25.06,WSW,244,18.0,-999.0,70,-99.99,,,-99.99,dwt +perl,2013-03-20 01:54:00,
2013-03-19 19:04:00,41.5,33.5,25.07,WSW,245,19.0,-999.0,73,-99.99,,,-99.99,dwt +perl,2013-03-20 02:04:00,
2013-03-19 19:09:00,41.8,33.8,25.06,WSW,245,16.0,-999.0,73,-99.99,,,-99.99,dwt +perl,2013-03-20 02:09:00,
2013-03-19 19:14:00,41.8,33.8,25.07,West,281,16.0,-999.0,73,-99.99,,,-99.99,dwt +perl,2013-03-20 02:14:00,
2013-03-19 19:19:00,41.9,33.5,25.07,WSW,252,23.0,-999.0,72,-99.99,,,-99.99,dwt +perl,2013-03-20 02:19:00,
2013-03-19 19:24:00,41.5,33.5,25.07,WSW,245,21.0,-999.0,73,-99.99,,,-99.99,dwt +perl,2013-03-20 02:24:00,
2013-03-19 19:29:00,40.9,34.6,25.07,WSW,246,17.0,-999.0,78,-99.99,,,-99.99,dwt +perl,2013-03-20 02:29:00,
2013-03-19 19:34:00,40.3,34.6,25.08,WSW,248,20.0,-999.0,80,-99.99,,,-99.99,dwt +perl,2013-03-20 02:34:00,
2013-03-19 19:39:00,39.9,34.8,25.08,WSW,245,20.0,-999.0,82,-99.99,,,-99.99,dwt +perl,2013-03-20 02:39:00,
2013-03-19 19:44:00,39.3,34.9,25.09,WSW,254,24.0,-999.0,84,-99.99,,,-99.99,dwt +perl,2013-03-20 02:44:00,
2013-03-19 19:49:00,39.6,35.8,25.09,WSW,245,9.0,-999.0,86,-99.99,,,-99.99,dwt +perl,2013-03-20 02:49:00,
2013-03-19 19:54:00,40.8,36.6,25.09,West,261,11.0,-999.0,85,-99.99,,,-99.99,dwt +perl,2013-03-20 02:54:00,
2013-03-19 19:59:00,41.3,37.1,25.10,WSW,237,7.0,-999.0,85,-99.99,,,-99.99,dwt +perl,2013-03-20 02:59:00,
2013-03-19 20:04:00,41.3,37.1,25.10,WSW,247,7.0,-999.0,85,-99.99,,,-99.99,dwt +perl,2013-03-20 03:04:00,
2013-03-19 20:09:00,41.4,37.2,25.10,SW,235,8.0,-999.0,85,-99.99,,,-99.99,dwt +perl,2013-03-20 03:09:00,
2013-03-19 20:14:00,42.1,37.9,25.09,SW,218,4.0,-999.0,85,-99.99,,,-99.99,dwt +perl,2013-03-20 03:14:00,
2013-03-19 20:19:00,42.7,39.1,25.08,SW,218,0.0,-999.0,87,-99.99,,,-99.99,dwt +perl,2013-03-20 03:19:00,
2013-03-19 20:24:00,43.3,39.4,25.08,SW,214,1.0,-999.0,86,-99.99,,,-99.99,dwt +perl,2013-03-20 03:24:00,
2013-03-19 20:29:00,43.9,40.0,25.08,SSW,212,7.0,-999.0,86,-99.99,,,-99.99,dwt +perl,2013-03-20 03:29:00,
2013-03-19 20:34:00,45.6,41.0,25.08,SW,234,5.0,-999.0,84,-99.99,,,-99.99,dwt +perl,2013-03-20 03:34:00,
2013-03-19 20:44:00,46.1,40.3,25.07,SSE,168,1.0,-999.0,80,-99.99,,,-99.99,dwt +perl,2013-03-20 03:44:00,
2013-03-19 20:49:00,46.1,41.2,25.07,WSW,245,5.0,-999.0,83,-99.99,,,-99.99,dwt +perl,2013-03-20 03:49:00,
2013-03-19 20:54:00,45.9,41.0,25.08,WSW,241,6.0,-999.0,83,-99.99,,,-99.99,dwt +perl,2013-03-20 03:54:00,
2013-03-19 21:04:00,45.8,40.3,25.08,South,191,6.0,-999.0,81,-99.99,,,-99.99,dwt +perl,2013-03-20 04:04:00,
2013-03-19 21:09:00,45.9,40.4,25.08,SW,218,11.0,-999.0,81,-99.99,,,-99.99,dwt +perl,2013-03-20 04:09:00,
2013-03-19 21:14:00,45.8,40.6,25.08,SSW,210,10.0,-999.0,82,-99.99,,,-99.99,dwt +perl,2013-03-20 04:14:00,
2013-03-19 21:19:00,45.7,40.5,25.08,SW,214,6.0,-999.0,82,-99.99,,,-99.99,dwt +perl,2013-03-20 04:19:00,
2013-03-19 21:24:00,45.5,40.6,25.08,SW,224,10.0,-999.0,83,-99.99,,,-99.99,dwt +perl,2013-03-20 04:24:00,
2013-03-19 21:29:00,45.4,40.5,25.09,WSW,238,5.0,-999.0,83,-99.99,,,-99.99,dwt +perl,2013-03-20 04:29:00,
2013-03-19 21:34:00,45.3,40.4,25.08,WSW,241,9.0,-999.0,83,-99.99,,,-99.99,dwt +perl,2013-03-20 04:34:00,
2013-03-19 21:39:00,45.4,40.5,25.09,SSW,212,7.0,-999.0,83,-99.99,,,-99.99,dwt +perl,2013-03-20 04:39:00,
2013-03-19 21:44:00,45.3,40.8,25.08,SW,231,8.0,-999.0,84,-99.99,,,-99.99,dwt +perl,2013-03-20 04:44:00,
2013-03-19 21:49:00,45.4,40.8,25.08,SW,229,8.0,-999.0,84,-99.99,,,-99.99,dwt +perl,2013-03-20 04:49:00,
2013-03-19 21:54:00,45.3,40.8,25.08,WSW,243,4.0,-999.0,84,-99.99,,,-99.99,dwt +perl,2013-03-20 04:54:00,
2013-03-19 21:59:00,45.4,40.5,25.08,WSW,254,10.0,-999.0,83,-99.99,,,-99.99,dwt +perl,2013-03-20 04:59:00,
2013-03-19 22:04:00,45.5,40.6,25.08,West,260,7.0,-999.0,83,-99.99,,,-99.99,dwt +perl,2013-03-20 05:04:00,
2013-03-19 22:09:00,45.4,40.8,25.09,SW,236,8.0,-999.0,84,-99.99,,,-99.99,dwt +perl,2013-03-20 05:09:00,
2013-03-19 22:14:00,45.3,40.8,25.09,WSW,252,6.0,-999.0,84,-99.99,,,-99.99,dwt +perl,2013-03-20 05:14:00,
2013-03-19 22:19:00,45.2,40.7,25.09,SW,233,9.0,-999.0,84,-99.99,,,-99.99,dwt +perl,2013-03-20 05:19:00,
2013-03-19 22:24:00,45.1,40.9,25.09,WSW,238,12.0,-999.0,85,-99.99,,,-99.99,dwt +perl,2013-03-20 05:24:00,
2013-03-19 22:29:00,45.2,40.7,25.08,WSW,248,7.0,-999.0,84,-99.99,,,-99.99,dwt +perl,2013-03-20 05:29:00,
2013-03-19 22:34:00,45.4,39.9,25.08,WSW,244,11.0,-999.0,81,-99.99,,,-99.99,dwt +perl,2013-03-20 05:34:00,
2013-03-19 22:39:00,45.6,40.1,25.08,West,270,10.0,-999.0,81,-99.99,,,-99.99,dwt +perl,2013-03-20 05:39:00,
2013-03-19 22:44:00,45.7,39.2,25.08,WSW,253,6.0,-999.0,78,-99.99,,,-99.99,dwt +perl,2013-03-20 05:44:00,
2013-03-19 22:49:00,45.6,38.8,25.08,SSW,212,12.0,-999.0,77,-99.99,,,-99.99,dwt +perl,2013-03-20 05:49:00,
2013-03-19 22:54:00,45.8,38.7,25.08,NW,305,14.0,-999.0,76,-99.99,,,-99.99,dwt +perl,2013-03-20 05:54:00,
2013-03-19 22:59:00,46.4,38.6,25.08,WSW,239,20.0,-999.0,74,-99.99,,,-99.99,dwt +perl,2013-03-20 05:59:00,
2013-03-19 23:04:00,46.7,38.2,25.08,SW,233,14.0,-999.0,72,-99.99,,,-99.99,dwt +perl,2013-03-20 06:04:00,
2013-03-19 23:09:00,46.6,37.7,25.08,WSW,247,12.0,-999.0,71,-99.99,,,-99.99,dwt +perl,2013-03-20 06:09:00,
2013-03-19 23:14:00,47.0,37.0,25.08,SW,236,18.0,-999.0,68,-99.99,,,-99.99,dwt +perl,2013-03-20 06:14:00,
2013-03-19 23:19:00,47.3,36.1,25.08,SW,220,20.0,-999.0,65,-99.99,,,-99.99,dwt +perl,2013-03-20 06:19:00,
2013-03-19 23:24:00,47.6,35.2,25.08,SSW,213,27.0,-999.0,62,-99.99,,,-99.99,dwt +perl,2013-03-20 06:24:00,
2013-03-19 23:29:00,47.6,35.2,25.08,WSW,239,26.0,-999.0,62,-99.99,,,-99.99,dwt +perl,2013-03-20 06:29:00,
2013-03-19 23:34:00,47.6,36.0,25.08,West,274,24.0,-999.0,64,-99.99,,,-99.99,dwt +perl,2013-03-20 06:34:00,
2013-03-19 23:39:00,47.1,36.7,25.08,SW,223,18.0,-999.0,67,-99.99,,,-99.99,dwt +perl,2013-03-20 06:39:00,
2013-03-19 23:44:00,47.1,36.3,25.07,SW,226,20.0,-999.0,66,-99.99,,,-99.99,dwt +perl,2013-03-20 06:44:00,
2013-03-19 23:49:00,47.0,36.6,25.07,WSW,251,10.0,-999.0,67,-99.99,,,-99.99,dwt +perl,2013-03-20 06:49:00,
2013-03-19 23:54:00,47.0,37.0,25.07,SW,224,19.0,-999.0,68,-99.99,,,-99.99,dwt +perl,2013-03-20 06:54:00,